Overview Statistics Trail Chart Weather Telemetry Raw packets
 

This is the latest recevied weather packets stored in our database for station/object W5CMS-13. If no packets are shown the sender has not sent any weather packets the latest 10 day(s).

<< 53 54 55 56 57 58 >>
Time Temp. Humidity Pressure Rain* Wind** Luminosity Snow
1787799917 31.67° C 61% 1012.7 hPa 0 mm - - -
1787799318 31.11° C 61% 1012.6 hPa 0 mm - - -
1787798717 31.11° C 62% 1012.5 hPa 0 mm - - -
1787798117 31.67° C 62% 1012.3 hPa 0 mm - - -
1787797517 31.67° C 62% 1012 hPa 0 mm - - -
1787796917 31.67° C 61% 1011.8 hPa 0 mm - - -
1787796317 32.22° C 60% 1011.6 hPa 0 mm - - -
1787795717 32.22° C 60% 1011.4 hPa 0 mm - - -
1787795117 32.22° C 59% 1011.4 hPa 0 mm - - -
1787794517 32.78° C 59% 1011.4 hPa 0 mm - - -
1787793917 33.33° C 58% 1011.2 hPa 0 mm - - -
1787793317 33.33° C 57% 1011 hPa 0 mm - - -
1787792718 33.89° C 57% 1011 hPa 0 mm - - -
1787792117 33.89° C 56% 1011 hPa 0 mm - - -
1787791518 34.44° C 55% 1010.9 hPa 0 mm - - -
1787790917 35° C 53% 1011 hPa 0 mm - - -
1787790318 36.11° C 49% 1011 hPa 0 mm - - -
1787789717 36.11° C 44% 1010.7 hPa 0 mm - - -
1787789118 36.11° C 46% 1010.7 hPa 0 mm - - -
1787788519 36.67° C 45% 1010.7 hPa 0 mm - - -
1787787917 36.67° C 44% 1011.1 hPa 0 mm - - -
1787787318 37.22° C 43% 1011 hPa 0 mm - - -
1787786718 37.22° C 42% 1010.9 hPa 0 mm - - -
1787786118 37.78° C 41% 1010.9 hPa 0 mm - - -
1787785518 38.33° C 40% 1010.7 hPa 0 mm - - -

* Rain latest hour (hover to see other rain measurements)
** Current wind speed in m/s (hover to see current wind gust speed)